User: anonymous   Login
Location: Unspecified
(0.0000°N, 0.0000°E)
Time: 15:01:39
(UTC+01:00)
Language:

GPS 2-12 Rocket1 - Orbit

View from above orbital plane
View from above orbital plane
View from above satellite
View from above satellite

Ground track
Ground track

The orbit data is extracted from the following two-line orbital elements,

1 21891U 92009B   16341.54324702  .00000720  00000-0  37298-4 0  9995
2 21891  19.9962 114.5045 0047164 222.4879 137.1882 14.82785836337639
Epoch (UTC): 06 December 2016 13:02:16
Eccentricity: 0.0047164
inclination: 19.9962°
perigee height: 587 km
apogee height: 653 km
right ascension of ascending node: 114.5045°
argument of perigee: 222.4879°
revolutions per day: 14.82785836
mean anomaly at epoch: 137.1882°
orbit number at epoch: 33763

The dashed part of the orbit path shows where the satellite is in the earth's shadow,  

DLR